Simultaneous Nadir Overpasses (SNOs) Predictions

Prediction of SNOs between GOES-17 and LANDSAT-8 Satellite Orbit:

Table of predicted SNOs for the next 14.0 days since TLE Epoch: 8/3/2024
Index Date Time (GOES-17) GOES-17 Lat,Lon LANDSAT-8 Lat,Lon Distance(km) Time Diff (sec)
1 08/04/2024 04:54:26 -0.01,-104.67 0.75,-101.08 408.21 80
2 08/04/2024 17:18:21 0.01,-104.71 0.35,-106.23 173.76 80
3 08/06/2024 17:03:28 0.01,-104.72 -0.28,-103.26 165.07 80
4 08/07/2024 05:27:32 -0.01,-104.69 -0.81,-108.46 427.94 80
5 08/09/2024 05:15:19 -0.01,-104.71 -0.15,-105.49 88.65 80
6 08/11/2024 05:00:25 -0.01,-104.72 0.47,-102.52 250.85 80
7 08/11/2024 17:24:20 0.02,-104.76 0.61,-107.68 330.95 80
8 08/13/2024 17:12:05 0.02,-104.77 0.02,-104.69 8.60 80
9 08/15/2024 16:57:11 0.02,-104.78 -0.66,-101.73 347.56 80
10 08/16/2024 05:21:14 -0.03,-104.75 -0.46,-106.91 245.29 80
